Simultaneous Nadir Overpasses (SNOs) Predictions

Prediction of SNOs between LANDSAT-8 and NOAA-19 Satellite Orbit:

Table of predicted SNOs for the next 14.0 days since TLE Epoch: 5/18/2018
Index Date (LANDSAT-8) Time (LANDSAT-8) Lat,Lon (LANDSAT-8) SZA (LANDSAT-8 ) Date (NOAA-19) Time (NOAA-19) Lat,Lon (NOAA-19) SZA (NOAA-19 ) Distance(km) Time Diff (sec)
1 05/19/2018 00:56:24 77.80,-179.86 58.48 05/19/2018 00:55:15 77.86, 177.94 58.40 52.08 69
2 05/19/2018 01:45:56 -77.58, -13.15 121.80 05/19/2018 01:46:10 -77.55, -13.17 121.82 3.81 14
3 05/21/2018 06:30:03 -77.98, -82.50 121.77 05/21/2018 06:28:58 -78.02, -86.27 121.96 87.35 65
4 05/21/2018 07:19:38 77.57, 83.35 57.72 05/21/2018 07:19:44 77.56, 83.46 57.72 2.61 6
5 05/23/2018 12:53:21 -77.57, 179.92 122.72 05/23/2018 12:53:24 -77.59, 179.98 122.70 2.44 3
6 05/25/2018 18:27:02 77.59, -83.43 56.90 05/25/2018 18:26:57 77.61, -83.42 56.91 1.93 5
7 05/28/2018 00:00:45 -77.59, 13.14 123.49 05/28/2018 00:00:37 -77.60, 13.25 123.47 2.91 8
8 05/28/2018 00:50:19 77.20, 179.24 56.05 05/28/2018 00:51:24 77.22,-177.60 56.28 77.80 65
9 05/30/2018 05:34:25 77.64, 109.94 56.23 05/30/2018 05:34:09 77.62, 109.88 56.20 3.45 16
10 05/30/2018 06:23:58 -77.39, -83.46 124.08 05/30/2018 06:25:07 -77.33, -81.47 124.00 48.76 69
11 06/01/2018 11:08:07 -77.65,-153.49 124.09 06/01/2018 11:07:49 -77.63,-153.55 124.11 2.19 18




NCC Satellite Simultaneous Nadir Overpasses (SNOs) Prediction Service
